THORAD AGENA D DEB, 4277

Orbit data source: Space-Track

THORAD AGENA D DEB, 4277 is space debris in LEO originally from a launch on Tue, 30 Sep 1969 UTC launched from the Air Force Western Test Range (AFWTR). Debris objects in space refer to the collection of defunct objects orbiting the Earth. Examples of debris include non-operational satellites, rocket bodies, and fragments generated from explosions, collisions, or faulty payload assembly.

Loading next visibility...
Identifier
4277, 1969-082DL
Orbit
LEO
Country
Flag of USUS
Related business
Manufacturer
Unknown
Mission
Spacecraft
Bus & Motor
Unknown
Mass
Unknown
Launch date (UTC)
1969-09-30 (57 years ago)
Launch vehicle
Unknown
Launch site
Air Force Western Test Range (AFWTR)
Object type
Payload
Rocket body
Debris
Shape & HBR
Unknown shape, 0.5 m
Radar Cross Section
Medium (>0.1 m² and <1 m²)

Expand to show TLE details & history
Last TLE update: 1 day ago

TLE from 1 day ago
0 THORAD AGENA D DEB
1 04277U 69082DL  26173.26364258 -.00000164  00000-0 -64400-4 0  9991
2 04277  70.0222  10.7269 0042777 224.2287 135.5404 14.07431914909211
Epoch: 2026-06-22T06:19Z
TLE epoch observation values (Epoch: 2026-06-22T06:19:38.718Z)
Latitude
0.00002°
Longitude
5.36352°
Altitude
892.691 km
Speed
7.395 km/s
True Right ascension
00h 42m 54s
True Declination
0° 00' 00"
Sunlit
Object was in daylight at epoch
Visualization orbit readout
Latitude
Unknown
Longitude
Unknown
Altitude
Unknown
Speed
Unknown
Apparent Right ascension
Unknown
Apparent Declination
Unknown
Sunlit
N/A
Visualization observer readout
Local Sidereal Time
17:05:46
Azimuth
Unknown
Elevation
Unknown
Doppler factor
Unknown
Orbital elements
Apogee altitude
897.192 km
Perigee altitude
835.214 km
Semi-major axis
7,244.34 km
Eccentricity
0.00428
Inclination
70.0222°
RAAN
10.7269°
Arg. of periapsis
224.2287°
True anomaly
135.88242°
Mean anomaly
135.5404°
Eccentric anomaly
135.71154°
Mean motion
3.52002 °/min
Orbital period
102.27 mins
BSTAR
-0.0000644
Loading maneuver chart data...
Computing Atmospheric mass density...

Documentation

Showing up to 5 results
|